DW0742 Weather Reports


Display with metric or nautical units.
time (UTC)temp
F
wind
direction
speed
MPH
gust
MPH
rain 1hr
in
rain 24hr
in
rain mn
in
humidity
%
barometer
mb
20260504040049 73 209 2.0 18.0 0.00 0.00 0.00 26 1002.7
20260504034549 73 257 5.0 18.0 0.00 0.00 0.00 26 1002.5
20260504033040 75 252 0.0 17.0 0.00 0.00 0.00 24 1002.6
20260504031539 75 0 4.0 12.0 0.00 0.00 0.00 24 1001.8
20260504030042 76 0 0.0 8.0 0.00 0.00 0.00 25 1001.6
20260504024535 77 0 1.0 14.0 0.00 0.00 0.00 23 1001.6
20260504023040 79 310 3.0 18.0 0.00 0.00 0.00 21 1001.3
20260504021541 79 197 5.0 17.0 0.00 0.00 0.00 22 1000.7
20260504020043 80 309 4.0 14.0 0.00 0.00 0.00 18 1000.9
20260504014543 81 228 4.0 14.0 0.00 0.00 0.00 21 1000.7
20260504013037 81 233 5.0 16.0 0.00 0.00 0.00 24 1000.9
20260504011534 83 0 1.0 18.0 0.00 0.00 0.00 19 1001.0
20260504010041 85 207 2.0 21.0 0.00 0.00 0.00 17 1000.6
20260504004538 86 0 2.0 17.0 0.00 0.00 0.00 18 1000.6
20260504003039 86 188 4.0 34.0 0.00 0.00 0.00 18 1000.2
20260504001538 86 186 6.0 18.0 0.00 0.00 0.00 17 1000.3
20260504000038 87 270 6.0 25.0 0.00 0.00 0.00 17 1000.2
20260503234540 87 277 7.0 27.0 0.00 0.00 0.00 15 1000.1
20260503233041 88 205 5.0 18.0 0.00 0.00 0.00 15 1000.2
20260503231537 89 224 4.0 16.0 0.00 0.00 0.00 16 1000.2
20260503230036 91 0 1.0 12.0 0.00 0.00 0.00 15 1000.4
20260503224536 90 0 3.0 11.0 0.00 0.00 0.00 17 1000.3
20260503223042 88 359 2.0 9.0 0.00 0.00 0.00 19 1000.4
20260503221538 87 325 1.0 8.0 0.00 0.00 0.00 20 1000.6
20260503220043 87 0 3.0 9.0 0.00 0.00 0.00 20 1000.9
20260503214542 87 360 3.0 9.0 0.00 0.00 0.00 20 1001.0
20260503213037 89 27 1.0 10.0 0.00 0.00 0.00 18 1001.1
20260503211548 89 321 2.0 8.0 0.00 0.00 0.00 18 1001.1
20260503210042 89 359 2.0 7.0 0.00 0.00 0.00 17 1001.2
20260503204537 89 0 0.0 8.0 0.00 0.00 0.00 15 1001.4
20260503203046 89 0 1.0 8.0 0.00 0.00 0.00 17 1001.4
20260503201540 89 18 2.0 7.0 0.00 0.00 0.00 17 1001.5
20260503200051 89 0 1.0 5.0 0.00 0.00 0.00 16 1001.7
20260503194535 90 0 0.0 7.0 0.00 0.00 0.00 15 1002.1
20260503193037 89 52 1.0 6.0 0.00 0.00 0.00 16 1002.2
20260503191545 88 56 1.0 4.0 0.00 0.00 0.00 17 1002.5
20260503190047 88 0 0.0 6.0 0.00 0.00 0.00 18 1002.8
20260503184551 87 14 1.0 6.0 0.00 0.00 0.00 19 1002.8
20260503183041 87 0 0.0 5.0 0.00 0.00 0.00 20 1003.1
20260503181547 86 0 0.0 0.0 0.00 0.00 0.00 21 1003.4
20260503180058 85 0 1.0 7.0 0.00 0.00 0.00 21 1003.5
20260503174551 85 0 0.0 0.0 0.00 0.00 0.00 23 1003.7
20260503173052 84 0 0.0 0.0 0.00 0.00 0.00 26 1003.6
20260503171539 84 0 0.0 2.0 0.00 0.00 0.00 26 1003.8
20260503081543 77 0 0.0 0.0 0.00 0.00 0.00 33 1003.3
20260503071541 78 0 0.0 0.0 0.00 0.00 0.00 31 1003.5
20260503054537 81 0 0.0 0.0 0.00 0.00 0.00 26 1003.6
20260503053039 83 0 0.0 0.0 0.00 0.00 0.00 25 1003.9
20260503051543 84 0 0.0 0.0 0.00 0.00 0.00 24 1003.7
20260503050040 84 0 0.0 0.0 0.00 0.00 0.00 22 1003.5
20260503044537 85 0 0.0 0.0 0.00 0.00 0.00 14 1003.4
20260503043036 86 0 0.0 0.0 0.00 0.00 0.00 13 1003.3
20260503041536 87 0 0.0 0.0 0.00 0.00 0.00 11 1003.0